Flag for Switzerland Weather past 2 weeks in Stans, Nidwalden, Switzerland

Now
38 °F

Chilly.


Feels Like: 38 °F
Forecast: 32 / 57 °F
Wind: 1 mph from South

Location: Giswil

Current Time: Mar 27, 2015 at 10:11:44 PM

Latest Report: Mar 27, 2015 at 9:00 PM


Visibility: N/A

Pressure: 30.29 "Hg

Humidity: 85%

Dew point: 33 °F

Location of StansLocation

Historic Weather in Stans — Graph

°F

Stans temperature yesterday

Maximum temperature yesterday: 45 °F (at 2:00 PM)
Minimum temperature yesterday: 40 °F (at 6:00 AM)
Average temperature yesterday: 42 °F

Past Weeks' High & Low Weather Summary

 TemperatureHumidityPressure
High63 °F (Mar 18, 2:40 PM)99% (Mar 19, 7:00 AM)30.33 "Hg (Mar 19, 7:00 AM)
Low24 °F (Mar 13, 3:00 AM)23% (Mar 16, 12:00 AM)29.62 "Hg (Mar 25, 2:00 PM)
Average42 °F79%30.08 "Hg
* Reported Mar 12 8:00 PM — Mar 27 8:00 PM, Stans, Weather by CustomWeather, © 2015

Note: Actual official high and low records may vary slightly from our data, if they occured in-between our weather recording intervals... More about our weather records

Advertising

Stans weather history for previous 24 hours

 ConditionsComfort  
Time TempWeatherWind HumidityBarometerVisibility
8:00 PM
Fri, Mar 27
42 °FQuite cool.3 mph76%30.27 "HgN/A
7:00 PM47 °FCool.2 mph61%30.23 "HgN/A
6:00 PM50 °FCool.2 mph52%30.19 "HgN/A
5:00 PM49 °FCool.6 mph57%30.18 "HgN/A
4:00 PM50 °FCool.3 mph50%30.16 "HgN/A
3:00 PM51 °FCool.8 mph54%30.15 "HgN/A
2:00 PM51 °FCool.7 mph50%30.13 "HgN/A
1:00 PM50 °FCool.14 mph63%30.15 "HgN/A
12:00 PM46 °FCool.1 mph81%30.17 "HgN/A
11:00 AM44 °FQuite cool.1 mph86%30.16 "HgN/A
10:00 AM43 °FQuite cool.2 mph90%30.15 "HgN/A
9:00 AM42 °FQuite cool.1 mph93%30.14 "HgN/A
8:00 AM41 °FQuite cool.2 mph98%30.11 "HgN/A
6:00 AM41 °FQuite cool.1 mph99%30.07 "HgN/A
5:00 AM41 °FQuite cool.1 mph99%30.05 "HgN/A
3:00 AM41 °FQuite cool.1 mph99%30.03 "HgN/A
2:00 AM41 °FQuite cool.No wind98%30.01 "HgN/A
12:00 AM41 °FQuite cool.1 mph99%29.98 "HgN/A
11:00 PM
Thu, Mar 26
41 °FQuite cool.1 mph97%29.97 "HgN/A
Weather by CustomWeather, © 2015

See weather overviewHow to use our weather pages